Flag for U.S.A. Weather past 2 weeks in Fall River, Massachusetts, U.S.A.

Now
61 °F

Passing clouds.


Feels Like: 61 °F
Forecast: 58 / 79 °F
Wind: No wind

Location: New Bedford Regional Airport

Current Time: Jul 30, 2014 at 1:54:50 AM

Latest Report: Jul 30, 2014 at 12:53 AM


Visibility: 10 mi

Pressure: 29.96 "Hg

Humidity: 93%

Dew point: 59 °F

Location of Fall RiverLocation

Historic Weather in Fall River — Graph

°F

Fall River temperature yesterday

Maximum temperature yesterday: 78 °F (at 12:53 PM)
Minimum temperature yesterday: 62 °F (at 10:53 PM)
Average temperature yesterday: 70 °F

Past Weeks' High & Low Weather Summary

 TemperatureHumidityPressure
High85 °F (Jul 22, 12:53 PM)100% (Jul 17, 12:53 AM)30.27 "Hg (Jul 17, 12:53 AM)
Low58 °F (Jul 19, 4:53 AM)39% (Jul 25, 1:53 PM)29.49 "Hg (Jul 28, 4:53 PM)
Average71 °F80%29.93 "Hg
* Reported Jul 15 12:53 AM — Jul 30 12:53 AM, Fall River, Weather by CustomWeather, © 2014

Note: Actual official high and low records may vary slightly from our data, if they occured in-between our weather recording intervals... More about our weather records

Advertising

Fall River weather history for previous 24 hours

 ConditionsComfort  
Time TempWeatherWind HumidityBarometerVisibility
12:53 AM
Jul 30
61 °FPassing clouds.No wind93%29.96 "Hg10 mi
11:53 PM
Jul 29
62 °FPassing clouds.3 mph90%29.95 "Hg10 mi
10:53 PM62 °FClear.No wind90%29.93 "Hg10 mi
9:53 PM63 °FClear.No wind90%29.93 "Hg10 mi
8:53 PM66 °FSunny.3 mph78%29.91 "Hg10 mi
7:53 PM69 °FSunny.5 mph70%29.90 "Hg10 mi
6:53 PM73 °FSunny.8 mph59%29.88 "Hg10 mi
5:53 PM74 °FSunny.12 mph62%29.86 "Hg10 mi
4:53 PM76 °FSunny.15 mph56%29.85 "Hg10 mi
3:53 PM76 °FPassing clouds.14 mph60%29.83 "Hg10 mi
2:53 PM77 °FScattered clouds.16 mph60%29.82 "Hg10 mi
1:53 PM77 °FScattered clouds.8 mph54%29.80 "Hg10 mi
12:53 PM78 °FPassing clouds.9 mph52%29.80 "Hg10 mi
11:53 AM75 °FSunny.8 mph55%29.79 "Hg10 mi
10:53 AM74 °FPassing clouds.5 mph62%29.79 "Hg10 mi
9:53 AM72 °FSunny.10 mph66%29.78 "Hg10 mi
8:53 AM70 °FSunny.9 mph68%29.77 "Hg10 mi
7:53 AM67 °FSunny.13 mph76%29.75 "Hg10 mi
6:53 AM65 °FSunny.7 mph85%29.74 "Hg10 mi
5:53 AM63 °FClear.8 mph90%29.70 "Hg10 mi
4:53 AM64 °FClear.5 mph87%29.69 "Hg10 mi
3:53 AM65 °FClear.7 mph87%29.65 "Hg10 mi
2:53 AM67 °FClear.6 mph81%29.63 "Hg10 mi
1:53 AM68 °FPassing clouds.10 mph82%29.61 "Hg10 mi
Weather by CustomWeather, © 2014

See weather overviewHow to use our weather pages